Weather History for Fort Knox, KY

Change the Weather History Date:

Friday, February 1, 2013

  Actual Average Record
Temperature  
Mean Temperature 14 °F -  
Max Temperature 20 °F 42 °F 62 °F (2012)
Min Temperature 7 °F 25 °F 7 °F (2013)
Degree Days  
Heating Degree Days 52    
Moisture  
Dew Point 6 °F    
Average Humidity 69    
Maximum Humidity 80    
Minimum Humidity 56    
Precipitation  
Precipitation 0.00 in - - ()
Sea Level Pressure  
Sea Level Pressure 30.33 in    
Wind  
Wind Speed 14 mph (WNW)    
Max Wind Speed 21 mph    
Max Gust Speed 31 mph    
Visibility 9 miles    
Events Snow    
Averages and records for this station are not official NWS values.
T = Trace of Precipitation, MM = Missing Value Source: NWS Daily Summary

Daily Weather History Graph

Daily Weather History Graph

Search for Another Location

Airport:

Trip Planner

Search our weather history database for the weather conditions in past years. The results will help you decide how hot, cold, wet, or windy it might be!

Date:

Astronomy

Feb. 01, 2013 Rise Set
Actual Time 7:47 AM EST 6:07 PM EST
Civil Twilight 7:20 AM EST 6:35 PM EST
Nautical Twilight 6:48 AM EST 7:06 PM EST
Astronomical Twilight 6:17 AM EST 7:37 PM EST
Moon No Moon Rise 10:27 AM EST (2/1)
Length of Visible Light 11h 15m
Length of Day
10h 19m
Waning Gibbous, 70% of the Moon is Illuminated
Feb 1
Waning Gibbous
Feb 3
Last Quarter
Feb 10
New
Feb 17
First Quarter
Feb 25
Full

Hourly Weather History & Observations

Time (EST) Temp. Windchill Dew Point Humidity Pressure Visibility Wind Dir Wind Speed Gust Speed Precip Events Conditions
12:30 AM 15.8 °F -0.2 °F 6.8 °F 68% 30.19 in 10.0 mi WNW 17.3 mph 29.9 mph N/A Snow Light Snow
12:35 AM 15.8 °F -0.6 °F 6.8 °F 68% 30.20 in 10.0 mi NW 18.4 mph 24.2 mph N/A Snow Light Snow
12:44 AM 15.8 °F -0.6 °F 6.8 °F 68% 30.21 in 10.0 mi NW 18.4 mph 29.9 mph N/A   Mostly Cloudy
12:55 AM 15.6 °F -1.8 °F 6.1 °F 66% 30.22 in 10.0 mi WNW 20.7 mph 31.1 mph 0.00 in   Overcast
1:16 AM 15.8 °F -0.6 °F 5.0 °F 62% 30.24 in 10.0 mi WNW 18.4 mph 31.1 mph N/A   Overcast
1:19 AM 15.8 °F -0.6 °F 5.0 °F 62% 30.24 in 10.0 mi WNW 18.4 mph 31.1 mph N/A Snow Light Snow
1:30 AM 15.8 °F -0.2 °F 6.8 °F 68% 30.24 in 10.0 mi WNW 17.3 mph 24.2 mph N/A Snow Light Snow
1:33 AM 15.8 °F -1.1 °F 6.8 °F 68% 30.25 in 10.0 mi WNW 19.6 mph 26.5 mph N/A Snow Light Snow
1:41 AM 15.8 °F -0.2 °F 6.8 °F 68% 30.25 in 9.0 mi WNW 17.3 mph 26.5 mph N/A Snow Light Snow
1:47 AM 15.8 °F 1.4 °F 6.8 °F 68% 30.25 in 9.0 mi West 13.8 mph 25.3 mph N/A Snow Light Snow
1:51 AM 15.8 °F 1.4 °F 6.8 °F 68% 30.25 in 10.0 mi West 13.8 mph - N/A Snow Light Snow
1:52 AM 15.8 °F 1.4 °F 6.8 °F 68% 30.25 in 10.0 mi WNW 13.8 mph - N/A Snow Light Snow
1:54 AM 15.8 °F 1.4 °F 6.8 °F 68% 30.25 in 10.0 mi WNW 13.8 mph - N/A Snow Light Snow
1:55 AM 15.1 °F 1.1 °F 7.0 °F 70% 30.25 in 10.0 mi West 12.7 mph - 0.00 in Snow Light Snow
1:59 AM 15.8 °F 0.3 °F 6.8 °F 68% 30.26 in 10.0 mi West 16.1 mph 19.6 mph N/A Snow Light Snow
2:01 AM 15.8 °F 0.9 °F 6.8 °F 68% 30.26 in 10.0 mi West 15.0 mph 19.6 mph N/A Snow Light Snow
2:11 AM 14.0 °F -1.4 °F 6.8 °F 73% 30.27 in 10.0 mi West 15.0 mph - N/A   Overcast
2:16 AM 14.0 °F -0.8 °F 6.8 °F 73% 30.27 in 10.0 mi West 13.8 mph - N/A Snow Light Snow
2:40 AM 14.0 °F -2.0 °F 5.0 °F 67% 30.29 in 10.0 mi WNW 16.1 mph 28.8 mph N/A   Mostly Cloudy
2:44 AM 14.0 °F -1.4 °F 5.0 °F 67% 30.29 in 10.0 mi West 15.0 mph 27.6 mph N/A   Mostly Cloudy
2:55 AM 14.0 °F -2.5 °F 4.3 °F 65% 30.29 in 10.0 mi West 17.3 mph 27.6 mph 0.00 in   Scattered Clouds
3:15 AM 14.0 °F -3.0 °F 5.0 °F 67% 30.30 in 10.0 mi West 18.4 mph 24.2 mph N/A Snow Light Snow
3:27 AM 14.0 °F -2.5 °F 3.2 °F 62% 30.30 in 10.0 mi West 17.3 mph 23.0 mph N/A   Scattered Clouds
3:37 AM 14.0 °F -2.0 °F 3.2 °F 62% 30.31 in 10.0 mi West 16.1 mph 26.5 mph N/A Snow Light Snow
3:42 AM 14.0 °F -0.8 °F 5.0 °F 67% 30.32 in 2.5 mi NW 13.8 mph 26.5 mph N/A Snow Light Snow
3:45 AM 14.0 °F -1.4 °F 6.8 °F 73% 30.32 in 1.8 mi WNW 15.0 mph 26.5 mph N/A Snow Light Snow
3:46 AM 14.0 °F -0.8 °F 6.8 °F 73% 30.32 in 1.5 mi NW 13.8 mph - N/A Snow Light Snow
3:47 AM 14.0 °F 0.5 °F 6.8 °F 73% 30.32 in 1.5 mi NW 11.5 mph - N/A Snow Light Snow
3:48 AM 14.0 °F -0.8 °F 6.8 °F 73% 30.32 in 1.2 mi NW 13.8 mph - N/A Snow Light Snow
3:51 AM 12.2 °F -2.5 °F 6.8 °F 79% 30.32 in 1.5 mi WNW 12.7 mph - N/A Snow Light Snow
3:53 AM 12.2 °F -1.0 °F 6.8 °F 79% 30.32 in 1.8 mi NW 10.4 mph - N/A Snow Light Snow
3:55 AM 12.7 °F -1.1 °F 7.7 °F 80% 30.32 in 2.0 mi NW 11.5 mph - 0.00 in Snow Light Snow
3:58 AM 12.2 °F -1.0 °F 6.8 °F 79% 30.32 in 2.5 mi NW 10.4 mph - N/A Snow Light Snow
3:59 AM 12.2 °F -1.8 °F 6.8 °F 79% 30.32 in 3.0 mi WNW 11.5 mph - N/A Snow Light Snow
4:08 AM 12.2 °F -0.2 °F 6.8 °F 79% 30.33 in 10.0 mi WNW 9.2 mph 18.4 mph N/A Snow Light Snow
4:16 AM 12.2 °F -1.0 °F 5.0 °F 73% 30.32 in 10.0 mi WNW 10.4 mph 20.7 mph N/A Snow Light Snow
4:21 AM 12.2 °F -4.3 °F 5.0 °F 73% 30.32 in 10.0 mi WNW 16.1 mph 20.7 mph N/A   Mostly Cloudy
4:38 AM 10.4 °F -4.8 °F 3.2 °F 73% 30.33 in 10.0 mi WNW 12.7 mph - N/A   Scattered Clouds
4:55 AM 10.6 °F -5.8 °F 1.4 °F 67% 30.34 in 10.0 mi WNW 15.0 mph 21.9 mph 0.00 in   Partly Cloudy
5:55 AM 9.1 °F -5.6 °F 0.3 °F 67% 30.38 in 10.0 mi WNW 11.5 mph - N/A   Partly Cloudy
6:55 AM 8.6 °F -4.7 °F -0.9 °F 65% 30.40 in 10.0 mi WNW 9.2 mph - N/A   Scattered Clouds
7:55 AM 7.3 °F -4.1 °F -1.1 °F 68% 30.42 in 10.0 mi West 6.9 mph - N/A   Clear
8:55 AM 9.0 °F -2.2 °F -0.6 °F 65% 30.45 in 10.0 mi West 6.9 mph - N/A   Clear
9:55 AM 10.0 °F -5.9 °F -0.0 °F 64% 30.48 in 10.0 mi WNW 13.8 mph - N/A   Clear
10:55 AM 12.2 °F -0.2 °F 1.6 °F 63% 30.50 in 10.0 mi WSW 9.2 mph - N/A   Clear
11:55 AM 14.7 °F 1.4 °F 3.4 °F 61% 30.51 in 10.0 mi WSW 11.5 mph - N/A   Partly Cloudy
12:55 PM 17.6 °F 5.7 °F 5.9 °F 60% 30.49 in 10.0 mi West 10.4 mph 17.3 mph N/A   Mostly Cloudy
1:55 PM 17.6 °F 6.4 °F 5.5 °F 59% 30.46 in 10.0 mi West 9.2 mph - N/A   Clear
2:55 PM 19.2 °F 9.3 °F 7.3 °F 60% 30.45 in 10.0 mi WSW 8.1 mph - N/A   Clear
3:55 PM 20.3 °F 9.8 °F 7.5 °F 58% 30.43 in 10.0 mi SW 9.2 mph - N/A   Clear
4:55 PM 20.3 °F 15.4 °F 6.6 °F 56% 30.43 in 10.0 mi SW 3.5 mph - N/A   Clear
5:55 PM 19.2 °F 10.2 °F 7.3 °F 60% 30.42 in 10.0 mi WSW 6.9 mph - N/A   Clear
6:55 PM 16.9 °F 11.5 °F 8.2 °F 69% 30.43 in 10.0 mi WSW 3.5 mph - N/A   Clear
7:55 PM 15.4 °F - 8.1 °F 73% 30.43 in 10.0 mi Calm Calm - N/A   Clear
8:55 PM 15.8 °F - 10.4 °F 79% 30.40 in 10.0 mi Calm Calm - N/A   Clear
9:55 PM 16.7 °F - 10.6 °F 77% 30.40 in 10.0 mi Calm Calm - N/A   Clear
10:55 PM 17.8 °F 12.5 °F 12.2 °F 79% 30.38 in 10.0 mi SSE 3.5 mph - N/A   Scattered Clouds
11:55 PM 18.5 °F 13.3 °F 11.7 °F 75% 30.36 in 10.0 mi SE 3.5 mph - N/A   Clear